Location: Mascot Post Office (historical)
(40.2645°N, 99.5462°W)
Time: 02:24:37
(UTC+00:00)

Cosmos 2369 - Pass Details

Date: 14 July 2020
Orbit: 838 x 857 km, 71.0° (Epoch: 14 August)

Event Time Altitude Azimuth Distance (km) Brightness Sun altitude
Rises 08:28:17 0° 340° (NNW) 3,433 7.5 -23.6°
Reaches altitude 10° 08:30:48 10° 345° (NNW) 2,495 6.8 -23.4°
Maximum altitude 08:36:26 55° 63° (ENE) 1,029 4.4 -22.9°
Drops below altitude 10° 08:42:01 10° 140° (SE) 2,483 5.9 -22.3°
Enters shadow 08:42:04 10° 141° (SE) 2,499 5.9 -22.3°
